Location: Newark
(51.3000°N, 178.2000°W)
Time: 02:25:28
(UTC+00:00)

ISS - Pass Details

Date: 10 May 2021
Orbit: 417 x 422 km, 51.6° (Epoch: 15 June)

Event Time Altitude Azimuth Distance (km) Brightness Sun altitude
Exits shadow 13:12:36 50° 263° (W) 546 -3.4 -18.6°
Maximum altitude 13:13:24 89° 1° (N) 427 -3.8 -18.5°
Drops below altitude 10° 13:16:48 10° 82° (E) 1,511 -0.6 -18.3°
Sets 13:18:54 0° 83° (E) 2,377 0.5 -18.2°
